• In Russia
  • List of Countries
  • For 7 days
  • Water Temperature
  • Satellite Maps
  • Weather Map
  • Weather Widgets
  • user-avatar
    Login

    Hourly Weather Hobart

    Today, 21 July, Friday

    Time Temperature Precipitation Wind Pressure Humidity
    00:00 +4°C° 0 mm 2 mps 751 mmHg 98%
    01:00 +3°C° 0 mm 2 mps 752 mmHg 98%
    02:00 +3°C° 0 mm 2 mps 752 mmHg 98%
    03:00 +3°C° 0 mm 2 mps 752 mmHg 98%
    04:00 +3°C° 0 mm 2 mps 752 mmHg 98%
    05:00 +3°C° 0 mm 2 mps 752 mmHg 98%
    06:00 +2°C° 0 mm 2 mps 752 mmHg 98%
    07:00 +2°C° 0 mm 2 mps 752 mmHg 97%
    08:00 +4°C° 0 mm 2 mps 752 mmHg 93%
    09:00 +5°C° 0 mm 2 mps 752 mmHg 88%
    10:00 +8°C° 0 mm 1 mps 753 mmHg 83%
    11:00 +9°C° 0 mm 1 mps 752 mmHg 74%
    12:00 +11°C° 0 mm 1 mps 752 mmHg 65%
    13:00 +13°C° 0 mm 1 mps 751 mmHg 56%
    14:00 +12°C° 0 mm 1 mps 751 mmHg 58%
    15:00 +12°C° 0 mm 1 mps 751 mmHg 60%
    16:00 +11°C° 0 mm 1 mps 751 mmHg 61%
    17:00 +9°C° 0 mm 1 mps 751 mmHg 69%
    18:00 +6°C° 0 mm 2 mps 751 mmHg 77%
    19:00 +4°C° 0 mm 2 mps 751 mmHg 85%
    20:00 +4°C° 0 mm 2 mps 751 mmHg 87%
    21:00 +4°C° 0 mm 2 mps 751 mmHg 88%
    22:00 +2°C° 0 mm 3 mps 750 mmHg 90%
    23:00 +2°C° 0 mm 3 mps 750 mmHg 90%

    Tomorrow, 22 July, Saturday

    Time Temperature Precipitation Wind Pressure Humidity
    00:00 +2°C° 0 mm 3 mps 749 mmHg 90%
    01:00 +2°C° 0 mm 3 mps 749 mmHg 89%
    02:00 +2°C° 0 mm 3 mps 748 mmHg 87%
    03:00 +2°C° 0 mm 3 mps 747 mmHg 85%
    04:00 +2°C° 0 mm 3 mps 747 mmHg 83%
    05:00 +3°C° 0 mm 3 mps 746 mmHg 83%
    06:00 +4°C° 0 mm 3 mps 746 mmHg 82%
    07:00 +4°C° 0 mm 3 mps 746 mmHg 82%
    08:00 +6°C° 0 mm 4 mps 745 mmHg 75%
    09:00 +8°C° 0 mm 4 mps 745 mmHg 69%
    10:00 +9°C° 0 mm 5 mps 745 mmHg 63%
    11:00 +12°C° 0 mm 5 mps 744 mmHg 62%
    12:00 +13°C° 0 mm 5 mps 743 mmHg 61%
    13:00 +14°C° 0 mm 5 mps 742 mmHg 60%
    14:00 +13°C° 0 mm 5 mps 742 mmHg 62%
    15:00 +13°C° 0 mm 5 mps 741 mmHg 64%
    16:00 +13°C° 0 mm 4 mps 741 mmHg 67%
    17:00 +12°C° 0 mm 4 mps 740 mmHg 71%
    18:00 +11°C° 0 mm 4 mps 740 mmHg 75%
    19:00 +10°C° 0 mm 4 mps 740 mmHg 80%
    20:00 +10°C° 0 mm 4 mps 740 mmHg 79%
    21:00 +11°C° 0 mm 4 mps 739 mmHg 78%
    22:00 +11°C° 0 mm 4 mps 739 mmHg 78%
    23:00 +10°C° 0.1 mm 5 mps 738 mmHg 78%

    Day after tomorrow, 23 July, Sunday

    Time Temperature Precipitation Wind Pressure Humidity
    00:00 +10°C° 0.1 mm 5 mps 738 mmHg 78%
    01:00 +10°C° 0.1 mm 5 mps 738 mmHg 78%
    02:00 +9°C° 0 mm 5 mps 737 mmHg 79%
    03:00 +9°C° 0 mm 5 mps 737 mmHg 80%
    04:00 +8°C° 0 mm 4 mps 737 mmHg 81%
    05:00 +8°C° 0 mm 4 mps 737 mmHg 83%
    06:00 +7°C° 0 mm 5 mps 736 mmHg 85%
    07:00 +7°C° 0 mm 5 mps 736 mmHg 87%
    08:00 +8°C° 0 mm 6 mps 736 mmHg 81%
    09:00 +8°C° 0 mm 7 mps 736 mmHg 75%
    10:00 +9°C° 0 mm 8 mps 736 mmHg 68%
    11:00 +9°C° 0 mm 8 mps 736 mmHg 67%
    12:00 +10°C° 0 mm 8 mps 736 mmHg 65%
    13:00 +10°C° 0 mm 8 mps 737 mmHg 64%
    14:00 +9°C° 0.1 mm 7 mps 737 mmHg 68%
    15:00 +8°C° 0.1 mm 7 mps 738 mmHg 73%
    16:00 +7°C° 0.1 mm 6 mps 739 mmHg 77%
    17:00 +5°C° 0.1 mm 6 mps 740 mmHg 81%
    18:00 +6°C° 0.1 mm 5 mps 741 mmHg 86%
    19:00 +5°C° 0.1 mm 4 mps 742 mmHg 90%
    20:00 +4°C° 0.1 mm 4 mps 742 mmHg 90%
    21:00 +4°C° 0.1 mm 4 mps 743 mmHg 91%
    22:00 +3°C° 0.1 mm 3 mps 744 mmHg 92%
    23:00 +2°C° 0 mm 3 mps 744 mmHg 93%

    24 July, Monday

    Time Temperature Precipitation Wind Pressure Humidity
    00:00 +2°C° 0 mm 3 mps 744 mmHg 94%
    01:00 +1°C° 0 mm 3 mps 745 mmHg 96%
    02:00 0°C° 0 mm 3 mps 745 mmHg 96%
    03:00 0°C° 0 mm 3 mps 745 mmHg 96%
    04:00 -1°C° 0 mm 3 mps 745 mmHg 97%
    05:00 -1°C° 0 mm 3 mps 746 mmHg 97%
    06:00 -1°C° 0 mm 3 mps 746 mmHg 97%
    07:00 -1°C° 0 mm 3 mps 746 mmHg 97%
    08:00 0°C° 0 mm 3 mps 747 mmHg 90%
    09:00 +2°C° 0 mm 3 mps 747 mmHg 84%
    10:00 +4°C° 0 mm 3 mps 747 mmHg 78%
    11:00 +6°C° 0 mm 2 mps 747 mmHg 70%
    12:00 +8°C° 0 mm 2 mps 747 mmHg 62%
    13:00 +9°C° 0 mm 2 mps 746 mmHg 53%
    14:00 +9°C° 0 mm 2 mps 746 mmHg 56%
    15:00 +8°C° 0 mm 2 mps 746 mmHg 58%
    16:00 +8°C° 0 mm 2 mps 745 mmHg 60%
    17:00 +7°C° 0 mm 3 mps 745 mmHg 66%
    18:00 +4°C° 0 mm 3 mps 745 mmHg 72%
    19:00 +3°C° 0 mm 3 mps 745 mmHg 77%
    20:00 +3°C° 0 mm 3 mps 745 mmHg 79%
    21:00 +3°C° 0 mm 3 mps 745 mmHg 81%
    22:00 +4°C° 0 mm 3 mps 744 mmHg 83%
    23:00 +4°C° 0 mm 3 mps 744 mmHg 85%

    25 July, Tuesday

    Time Temperature Precipitation Wind Pressure Humidity
    00:00 +3°C° 0 mm 3 mps 743 mmHg 87%
    01:00 +3°C° 0 mm 3 mps 743 mmHg 89%
    02:00 +4°C° 0 mm 3 mps 742 mmHg 90%
    03:00 +4°C° 0 mm 3 mps 741 mmHg 91%
    04:00 +4°C° 0 mm 4 mps 740 mmHg 91%
    05:00 +5°C° 0.2 mm 4 mps 739 mmHg 91%
    06:00 +5°C° 0.2 mm 4 mps 738 mmHg 92%
    07:00 +6°C° 0.2 mm 4 mps 737 mmHg 92%
    08:00 +7°C° 1 mm 4 mps 736 mmHg 89%
    09:00 +8°C° 1 mm 5 mps 736 mmHg 86%
    10:00 +10°C° 1 mm 5 mps 736 mmHg 83%
    11:00 +10°C° 0.1 mm 6 mps 735 mmHg 77%
    12:00 +10°C° 0.1 mm 6 mps 735 mmHg 72%
    13:00 +10°C° 0.1 mm 7 mps 734 mmHg 67%
    14:00 +10°C° 0 mm 7 mps 734 mmHg 68%
    15:00 +10°C° 0 mm 6 mps 734 mmHg 70%
    16:00 +9°C° 0 mm 6 mps 734 mmHg 72%
    17:00 +8°C° 0.2 mm 6 mps 735 mmHg 78%
    18:00 +8°C° 0.2 mm 6 mps 736 mmHg 84%
    19:00 +7°C° 0.2 mm 6 mps 737 mmHg 90%
    20:00 +5°C° 0.4 mm 6 mps 738 mmHg 92%
    21:00 +5°C° 0.4 mm 6 mps 739 mmHg 93%
    22:00 +4°C° 0.4 mm 6 mps 740 mmHg 94%
    23:00 +3°C° 0.2 mm 6 mps 741 mmHg 94%

    26 July, Wednesday

    Time Temperature Precipitation Wind Pressure Humidity
    00:00 +3°C° 0.2 mm 5 mps 742 mmHg 93%
    01:00 +2°C° 0.2 mm 5 mps 743 mmHg 93%
    02:00 +3°C° 0.1 mm 4 mps 744 mmHg 93%
    03:00 +1°C° 0.1 mm 4 mps 744 mmHg 94%
    04:00 +1°C° 0.1 mm 4 mps 745 mmHg 94%
    05:00 0°C° 0.1 mm 4 mps 745 mmHg 94%
    06:00 -1°C° 0.1 mm 4 mps 746 mmHg 95%
    07:00 -1°C° 0.1 mm 4 mps 747 mmHg 95%
    08:00 0°C° 0 mm 4 mps 747 mmHg 90%
    09:00 +1°C° 0 mm 4 mps 748 mmHg 84%
    10:00 +3°C° 0 mm 4 mps 749 mmHg 78%
    11:00 +4°C° 0.1 mm 4 mps 749 mmHg 72%
    12:00 +5°C° 0.1 mm 4 mps 749 mmHg 66%
    13:00 +6°C° 0.1 mm 4 mps 749 mmHg 59%
    14:00 +5°C° 0.1 mm 4 mps 749 mmHg 62%
    15:00 +5°C° 0.1 mm 4 mps 750 mmHg 64%
    16:00 +5°C° 0.1 mm 4 mps 750 mmHg 66%
    17:00 +4°C° 0.1 mm 4 mps 750 mmHg 74%
    18:00 +1°C° 0.1 mm 4 mps 751 mmHg 82%
    19:00 0°C° 0.1 mm 4 mps 751 mmHg 89%
    20:00 0°C° 0 mm 4 mps 752 mmHg 91%
    21:00 0°C° 0 mm 3 mps 752 mmHg 93%
    22:00 0°C° 0 mm 3 mps 753 mmHg 94%
    23:00 0°C° 0 mm 3 mps 753 mmHg 95%
    Show more